Location: Banff
(51.1667°N, 115.5667°W)
Time: 12:09:59
(UTC+00:00)

Transit 2A - Visible Passes

Search period start: 30 November 2020 00:00
Search period end: 10 December 2020 00:00
Orbit: 595 x 964 km, 66.7° (Epoch: 29 November)

Date Brightness Start Highest point End Pass type
(mag) Time Alt. Az. Time Alt. Az. Time Alt. Az.
30 Nov 6.4 01:31:57 10° SW 01:38:16 83° NW 01:42:23 21° NE visible
30 Nov 7.8 03:17:04 10° W 03:22:18 28° NNW 03:22:53 28° NNW visible
01 Dec 6.4 00:57:47 10° SSW 01:04:05 78° SE 01:09:17 14° NE visible
01 Dec 7.6 02:42:20 10° W 02:47:52 33° NW 02:49:46 27° N visible
01 Dec 8.9 04:28:57 10° NW 04:30:16 14° NW 04:30:16 14° NW visible
02 Dec 6.6 00:23:47 10° SSW 00:29:57 60° ESE 00:35:46 10° NE visible
02 Dec 7.3 02:07:41 10° WSW 02:13:29 40° NW 02:16:38 23° NNE visible
02 Dec 8.5 03:54:07 10° WNW 03:57:08 18° NNW 03:57:08 18° NNW visible
03 Dec 7.0 01:33:07 10° WSW 01:39:09 50° NW 01:43:28 17° NNE visible
03 Dec 8.1 03:19:15 10° WNW 03:23:41 21° NNW 03:23:57 21° NNW visible
04 Dec 6.7 00:58:41 10° SW 01:04:52 63° NW 01:10:16 12° NNE visible
04 Dec 7.9 02:44:24 10° WNW 02:49:11 23° NNW 02:50:45 21° N visible
04 Dec 9.0 04:30:56 10° NW 04:31:14 11° NW 04:31:14 11° NW visible
05 Dec 6.5 00:24:21 10° SW 00:30:38 79° NW 00:36:29 10° NE visible
05 Dec 7.8 02:09:35 10° W 02:14:41 27° NNW 02:17:32 19° NNE visible
05 Dec 8.6 03:56:16 10° NW 03:58:01 14° NNW 03:58:01 14° NNW visible
06 Dec 7.6 01:34:50 10° W 01:40:16 32° NW 01:44:17 15° NNE visible
06 Dec 8.3 03:21:31 10° NW 03:24:46 17° NNW 03:24:46 17° NNW visible
07 Dec 7.4 01:00:10 10° WSW 01:05:53 38° NW 01:11:02 11° NNE visible
07 Dec 8.1 02:46:41 10° WNW 02:50:39 18° NNW 02:51:31 18° N visible
08 Dec 7.1 00:25:35 10° WSW 00:31:33 47° NW 00:37:04 10° NNE visible
08 Dec 8.0 02:11:49 10° WNW 02:16:06 20° NNW 02:18:15 16° N visible
08 Dec 8.8 03:57:58 10° NNW 03:58:43 12° NNW 03:58:43 12° NNW visible
09 Dec 8.0 01:36:57 10° WNW 01:41:35 23° NNW 01:44:58 14° NNE visible
09 Dec 8.4 03:23:27 10° NW 03:25:27 15° NNW 03:25:27 15° NNW visible
